Valle del Fuerte International Airport

Jump to: basic info | weather | frequencies | runways | comments

Related pages: nearby airports | nearby navaids | notams | map

Basic information (top)

Codes: LMM MMLM
Location: lon 25.685200, lat -109.081001, elev 16 ft / 5 m msl
Status: medium_airport
Scheduled airline service: yes
Links: Wikipedia Mobile

Weather (top)

Current conditions (rec'd 2014/12/18 01:45Z):

MMLM 180145Z 32008KT 10SM SKC 19/11 A3005 RMK CI

Airport forecast (rec'd 2014/12/13 06:11Z):

TAF MMLM 130505Z 1306/1406 00000KT P6SM SKC 
      BECMG 1309/1310 3SM BR BKN010 
      TEMPO 1311/1315 1/2SM FG VV003 
     FM131600 30010KT P6SM SKC 
      BECMG 1401/1402 00000KT

Frequencies (top)

Verify before use: may be inaccurate or out of date.

TWR: 118.8 MHz (MOCHIS TWR)

Runways (top)

09/27: 6,562 x 148 ft (2,000 x 45 m) — paved — lighted

Latest comments (top)

No comments yet for Valle del Fuerte International Airport

More... (top)

See also NOTAMs and nearby airports and navaids, or visit the Valle del Fuerte International Airport page at the main OurAirports website..